date,time,SUV Intensity [MED/Hr],UV Index,Daily total [MED],Since Last [MED]
10/10/2023,00:02:04,0.000,0.0,0.0,0.0
10/10/2023,00:03:04,0.000,0.0,0.0,0.0
10/10/2023,00:04:04,0.000,0.0,0.0,0.0
10/10/2023,00:05:05,0.000,0.0,0.0,0.0
10/10/2023,00:06:04,0.000,0.0,0.0,0.0
10/10/2023,00:07:05,-0.001,0.0,0.0,0.0
10/10/2023,00:08:05,0.000,0.0,0.0,0.0
10/10/2023,00:09:04,0.000,0.0,0.0,0.0
10/10/2023,00:10:05,0.000,0.0,0.0,0.0
10/10/2023,00:11:04,0.000,0.0,0.0,0.0
10/10/2023,00:12:05,0.000,0.0,0.0,0.0
10/10/2023,00:13:05,0.000,0.0,0.0,0.0
10/10/2023,00:14:05,0.000,0.0,0.0,0.0
10/10/2023,00:15:05,0.000,0.0,0.0,0.0
10/10/2023,00:16:05,0.000,0.0,0.0,0.0
10/10/2023,00:17:05,0.000,0.0,0.0,0.0
10/10/2023,00:18:04,-0.001,0.0,0.0,0.0
10/10/2023,00:19:05,0.000,0.0,0.0,0.0
10/10/2023,00:20:05,0.000,0.0,0.0,0.0
10/10/2023,00:21:05,0.000,0.0,0.0,0.0
10/10/2023,00:22:05,0.000,0.0,0.0,0.0
10/10/2023,00:23:05,0.000,0.0,0.0,0.0
10/10/2023,00:24:05,0.000,0.0,0.0,0.0
10/10/2023,00:25:05,0.000,0.0,0.0,0.0
10/10/2023,00:26:05,0.000,0.0,0.0,0.0
10/10/2023,00:27:06,0.000,0.0,0.0,0.0
10/10/2023,00:28:05,0.000,0.0,0.0,0.0
10/10/2023,00:29:05,0.000,0.0,0.0,0.0
10/10/2023,00:30:06,0.000,0.0,0.0,0.0
10/10/2023,00:31:06,-0.001,0.0,0.0,0.0
10/10/2023,00:32:05,0.000,0.0,0.0,0.0
10/10/2023,00:33:06,0.000,0.0,0.0,0.0
10/10/2023,00:34:05,0.000,0.0,0.0,0.0
10/10/2023,00:35:05,0.000,0.0,0.0,0.0
10/10/2023,00:36:06,0.000,0.0,0.0,0.0
10/10/2023,00:37:05,0.000,0.0,0.0,0.0
10/10/2023,00:38:06,0.000,0.0,0.0,0.0
10/10/2023,00:39:05,0.000,0.0,0.0,0.0
10/10/2023,00:40:06,0.000,0.0,0.0,0.0
10/10/2023,00:41:05,0.000,0.0,0.0,0.0
10/10/2023,00:42:06,0.000,0.0,0.0,0.0
10/10/2023,00:43:06,0.000,0.0,0.0,0.0
10/10/2023,00:44:06,0.000,0.0,0.0,0.0
10/10/2023,00:45:05,-0.001,0.0,0.0,0.0
10/10/2023,00:46:06,0.000,0.0,0.0,0.0
10/10/2023,00:47:05,0.000,0.0,0.0,0.0
10/10/2023,00:48:06,0.000,0.0,0.0,0.0
10/10/2023,00:49:06,0.000,0.0,0.0,0.0
10/10/2023,00:50:06,0.000,0.0,0.0,0.0
10/10/2023,00:51:06,0.000,0.0,0.0,0.0
10/10/2023,00:52:06,0.000,0.0,0.0,0.0
10/10/2023,00:53:06,0.000,0.0,0.0,0.0
10/10/2023,00:54:06,0.000,0.0,0.0,0.0
10/10/2023,00:55:06,-0.001,0.0,0.0,0.0
10/10/2023,00:56:06,0.000,0.0,0.0,0.0
10/10/2023,00:57:06,0.000,0.0,0.0,0.0
10/10/2023,00:58:07,0.000,0.0,0.0,0.0
10/10/2023,00:59:06,0.000,0.0,0.0,0.0
10/10/2023,01:00:06,0.000,0.0,0.0,0.0
10/10/2023,01:01:06,0.000,0.0,0.0,0.0
10/10/2023,01:02:07,0.000,0.0,0.0,0.0
10/10/2023,01:03:07,0.000,0.0,0.0,0.0
10/10/2023,01:04:06,0.000,0.0,0.0,0.0
10/10/2023,01:05:06,0.000,0.0,0.0,0.0
10/10/2023,01:06:06,0.000,0.0,0.0,0.0
10/10/2023,01:07:07,0.000,0.0,0.0,0.0
10/10/2023,01:08:07,0.000,0.0,0.0,0.0
10/10/2023,01:09:06,0.000,0.0,0.0,0.0
10/10/2023,01:10:06,0.000,0.0,0.0,0.0
10/10/2023,01:11:07,0.000,0.0,0.0,0.0
10/10/2023,01:12:07,0.000,0.0,0.0,0.0
10/10/2023,01:13:07,0.000,0.0,0.0,0.0
10/10/2023,01:14:07,0.000,0.0,0.0,0.0
10/10/2023,01:15:07,0.000,0.0,0.0,0.0
10/10/2023,01:16:07,-0.000,0.0,0.0,0.0
10/10/2023,01:17:06,0.000,0.0,0.0,0.0
10/10/2023,01:18:07,0.000,0.0,0.0,0.0
10/10/2023,01:19:07,-0.001,0.0,0.0,0.0
10/10/2023,01:20:07,0.000,0.0,0.0,0.0
10/10/2023,01:21:07,-0.000,0.0,0.0,0.0
10/10/2023,01:22:07,0.000,0.0,0.0,0.0
10/10/2023,01:23:07,-0.001,0.0,0.0,0.0
10/10/2023,01:24:07,0.000,0.0,0.0,0.0
10/10/2023,01:25:07,0.000,0.0,0.0,0.0
10/10/2023,01:26:07,0.000,0.0,0.0,0.0
10/10/2023,01:27:07,0.000,0.0,0.0,0.0
10/10/2023,01:28:07,-0.001,0.0,0.0,0.0
10/10/2023,01:29:07,0.000,0.0,0.0,0.0
10/10/2023,01:30:07,0.000,0.0,0.0,0.0
10/10/2023,01:31:08,0.000,0.0,0.0,0.0
10/10/2023,01:32:07,0.000,0.0,0.0,0.0
10/10/2023,01:33:08,0.000,0.0,0.0,0.0
10/10/2023,01:34:08,0.000,0.0,0.0,0.0
10/10/2023,01:35:07,0.000,0.0,0.0,0.0
10/10/2023,01:36:08,0.000,0.0,0.0,0.0
10/10/2023,01:37:07,0.000,0.0,0.0,0.0
10/10/2023,01:38:08,-0.001,0.0,0.0,0.0
10/10/2023,01:39:07,0.000,0.0,0.0,0.0
10/10/2023,01:40:08,0.000,0.0,0.0,0.0
10/10/2023,01:41:08,0.000,0.0,0.0,0.0
10/10/2023,01:42:08,0.000,0.0,0.0,0.0
10/10/2023,01:43:08,0.000,0.0,0.0,0.0
10/10/2023,01:44:07,-0.000,0.0,0.0,0.0
10/10/2023,01:45:08,0.000,0.0,0.0,0.0
10/10/2023,01:46:07,0.000,0.0,0.0,0.0
10/10/2023,01:47:08,0.000,0.0,0.0,0.0
10/10/2023,01:48:08,0.000,0.0,0.0,0.0
10/10/2023,01:49:08,0.000,0.0,0.0,0.0
10/10/2023,01:50:08,0.000,0.0,0.0,0.0
10/10/2023,01:51:08,0.000,0.0,0.0,0.0
10/10/2023,01:52:08,-0.000,0.0,0.0,0.0
10/10/2023,01:53:08,0.000,0.0,0.0,0.0
10/10/2023,01:54:07,0.000,0.0,0.0,0.0
10/10/2023,01:55:08,0.000,0.0,0.0,0.0
10/10/2023,01:56:08,0.000,0.0,0.0,0.0
10/10/2023,01:57:09,0.000,0.0,0.0,0.0
10/10/2023,01:58:09,-0.001,0.0,0.0,0.0
10/10/2023,01:59:08,0.000,0.0,0.0,0.0
10/10/2023,02:00:08,0.000,0.0,0.0,0.0
10/10/2023,02:01:09,0.000,0.0,0.0,0.0
10/10/2023,02:02:08,0.000,0.0,0.0,0.0
10/10/2023,02:03:08,0.000,0.0,0.0,0.0
10/10/2023,02:04:08,0.000,0.0,0.0,0.0
10/10/2023,02:05:09,0.000,0.0,0.0,0.0
10/10/2023,02:06:08,-0.001,0.0,0.0,0.0
10/10/2023,02:07:09,0.000,0.0,0.0,0.0
10/10/2023,02:08:08,-0.000,0.0,0.0,0.0
10/10/2023,02:09:09,-0.001,0.0,0.0,0.0
10/10/2023,02:10:09,-0.000,0.0,0.0,0.0
10/10/2023,02:11:08,0.000,0.0,0.0,0.0
10/10/2023,02:12:09,0.000,0.0,0.0,0.0
10/10/2023,02:13:09,0.000,0.0,0.0,0.0
10/10/2023,02:14:08,0.000,0.0,0.0,0.0
10/10/2023,02:15:08,-0.000,0.0,0.0,0.0
10/10/2023,02:16:09,0.000,0.0,0.0,0.0
10/10/2023,02:17:09,0.000,0.0,0.0,0.0
10/10/2023,02:18:09,-0.000,0.0,0.0,0.0
10/10/2023,02:19:09,-0.001,0.0,0.0,0.0
10/10/2023,02:20:09,-0.000,0.0,0.0,0.0
10/10/2023,02:21:09,0.000,0.0,0.0,0.0
10/10/2023,02:22:09,0.000,0.0,0.0,0.0
10/10/2023,02:23:09,-0.000,0.0,0.0,0.0
10/10/2023,02:24:10,-0.000,0.0,0.0,0.0
10/10/2023,02:25:09,-0.000,0.0,0.0,0.0
10/10/2023,02:26:09,-0.000,0.0,0.0,0.0
10/10/2023,02:27:09,-0.000,0.0,0.0,0.0
10/10/2023,02:28:09,-0.000,0.0,0.0,0.0
10/10/2023,02:29:10,-0.000,0.0,0.0,0.0
10/10/2023,02:30:09,-0.001,0.0,0.0,0.0
10/10/2023,02:31:10,0.000,0.0,0.0,0.0
10/10/2023,02:32:09,0.000,0.0,0.0,0.0
10/10/2023,02:33:10,-0.000,0.0,0.0,0.0
10/10/2023,02:34:09,-0.000,0.0,0.0,0.0
10/10/2023,02:35:09,-0.000,0.0,0.0,0.0
10/10/2023,02:36:10,-0.000,0.0,0.0,0.0
10/10/2023,02:37:09,-0.000,0.0,0.0,0.0
10/10/2023,02:38:09,0.000,0.0,0.0,0.0
10/10/2023,02:39:10,-0.000,0.0,0.0,0.0
10/10/2023,02:40:10,-0.000,0.0,0.0,0.0
10/10/2023,02:41:10,-0.000,0.0,0.0,0.0
10/10/2023,02:42:10,0.000,0.0,0.0,0.0
10/10/2023,02:43:09,-0.000,0.0,0.0,0.0
10/10/2023,02:44:09,-0.000,0.0,0.0,0.0
10/10/2023,02:45:10,-0.000,0.0,0.0,0.0
10/10/2023,02:46:10,-0.000,0.0,0.0,0.0
10/10/2023,02:47:09,0.000,0.0,0.0,0.0
10/10/2023,02:48:10,0.000,0.0,0.0,0.0
10/10/2023,02:49:10,0.000,0.0,0.0,0.0
10/10/2023,02:50:10,-0.000,0.0,0.0,0.0
10/10/2023,02:51:10,-0.000,0.0,0.0,0.0
10/10/2023,02:52:10,-0.000,0.0,0.0,0.0
10/10/2023,02:53:10,-0.000,0.0,0.0,0.0
10/10/2023,02:54:10,-0.000,0.0,0.0,0.0
10/10/2023,02:55:10,-0.000,0.0,0.0,0.0
10/10/2023,02:56:11,-0.000,0.0,0.0,0.0
10/10/2023,02:57:10,-0.000,0.0,0.0,0.0
10/10/2023,02:58:10,-0.000,0.0,0.0,0.0
10/10/2023,02:59:11,-0.000,0.0,0.0,0.0
10/10/2023,03:00:11,-0.001,0.0,0.0,0.0
10/10/2023,03:01:10,-0.000,0.0,0.0,0.0
10/10/2023,03:02:10,-0.001,0.0,0.0,0.0
10/10/2023,03:03:10,-0.000,0.0,0.0,0.0
10/10/2023,03:04:11,-0.000,0.0,0.0,0.0
10/10/2023,03:05:10,-0.000,0.0,0.0,0.0
10/10/2023,03:06:11,-0.000,0.0,0.0,0.0
10/10/2023,03:07:10,0.000,0.0,0.0,0.0
10/10/2023,03:08:10,0.000,0.0,0.0,0.0
10/10/2023,03:09:10,-0.001,0.0,0.0,0.0
10/10/2023,03:10:11,-0.000,0.0,0.0,0.0
10/10/2023,03:11:10,0.000,0.0,0.0,0.0
10/10/2023,03:12:11,-0.002,0.0,0.0,0.0
10/10/2023,03:13:11,0.000,0.0,0.0,0.0
10/10/2023,03:14:10,0.000,0.0,0.0,0.0
10/10/2023,03:15:11,0.000,0.0,0.0,0.0
10/10/2023,03:16:11,0.000,0.0,0.0,0.0
10/10/2023,03:17:11,0.000,0.0,0.0,0.0
10/10/2023,03:18:10,-0.000,0.0,0.0,0.0
10/10/2023,03:19:10,0.000,0.0,0.0,0.0
10/10/2023,03:20:11,0.000,0.0,0.0,0.0
10/10/2023,03:21:11,0.000,0.0,0.0,0.0
10/10/2023,03:22:11,0.000,0.0,0.0,0.0
10/10/2023,03:23:11,0.000,0.0,0.0,0.0
10/10/2023,03:24:11,0.000,0.0,0.0,0.0
10/10/2023,03:25:11,0.000,0.0,0.0,0.0
10/10/2023,03:26:11,0.000,0.0,0.0,0.0
10/10/2023,03:27:11,0.000,0.0,0.0,0.0
10/10/2023,03:28:11,0.000,0.0,0.0,0.0
10/10/2023,03:29:11,0.000,0.0,0.0,0.0
10/10/2023,03:30:11,0.000,0.0,0.0,0.0
10/10/2023,03:31:11,0.000,0.0,0.0,0.0
10/10/2023,03:32:12,-0.000,0.0,0.0,0.0
10/10/2023,03:33:12,0.000,0.0,0.0,0.0
10/10/2023,03:34:11,0.000,0.0,0.0,0.0
10/10/2023,03:35:11,0.000,0.0,0.0,0.0
10/10/2023,03:36:12,0.000,0.0,0.0,0.0
10/10/2023,03:37:11,0.000,0.0,0.0,0.0
10/10/2023,03:38:11,-0.001,0.0,0.0,0.0
10/10/2023,03:39:11,0.000,0.0,0.0,0.0
10/10/2023,03:40:11,0.000,0.0,0.0,0.0
10/10/2023,03:41:12,0.000,0.0,0.0,0.0
10/10/2023,03:42:12,0.000,0.0,0.0,0.0
10/10/2023,03:43:12,0.000,0.0,0.0,0.0
10/10/2023,03:44:11,0.000,0.0,0.0,0.0
10/10/2023,03:45:12,0.000,0.0,0.0,0.0
10/10/2023,03:46:12,0.000,0.0,0.0,0.0
10/10/2023,03:47:12,0.000,0.0,0.0,0.0
10/10/2023,03:48:12,0.000,0.0,0.0,0.0
10/10/2023,03:49:12,0.000,0.0,0.0,0.0
10/10/2023,03:50:11,0.000,0.0,0.0,0.0
10/10/2023,03:51:12,0.000,0.0,0.0,0.0
10/10/2023,03:52:12,0.000,0.0,0.0,0.0
10/10/2023,03:53:12,0.000,0.0,0.0,0.0
10/10/2023,03:54:12,0.000,0.0,0.0,0.0
10/10/2023,03:55:12,0.000,0.0,0.0,0.0
10/10/2023,03:56:12,0.000,0.0,0.0,0.0
10/10/2023,03:57:12,0.000,0.0,0.0,0.0
10/10/2023,03:58:13,0.000,0.0,0.0,0.0
10/10/2023,03:59:12,0.000,0.0,0.0,0.0
10/10/2023,04:00:13,0.000,0.0,0.0,0.0
10/10/2023,04:01:12,0.000,0.0,0.0,0.0
10/10/2023,04:02:12,0.000,0.0,0.0,0.0
10/10/2023,04:03:13,0.000,0.0,0.0,0.0
10/10/2023,04:04:13,0.000,0.0,0.0,0.0
10/10/2023,04:05:12,0.000,0.0,0.0,0.0
10/10/2023,04:06:12,0.000,0.0,0.0,0.0
10/10/2023,04:07:12,0.000,0.0,0.0,0.0
10/10/2023,04:08:13,0.000,0.0,0.0,0.0
10/10/2023,04:09:13,0.000,0.0,0.0,0.0
10/10/2023,04:10:13,0.000,0.0,0.0,0.0
10/10/2023,04:11:12,0.000,0.0,0.0,0.0
10/10/2023,04:12:13,0.000,0.0,0.0,0.0
10/10/2023,04:13:13,0.000,0.0,0.0,0.0
10/10/2023,04:14:13,0.000,0.0,0.0,0.0
10/10/2023,04:15:13,0.000,0.0,0.0,0.0
10/10/2023,04:16:13,0.000,0.0,0.0,0.0
10/10/2023,04:17:13,0.000,0.0,0.0,0.0
10/10/2023,04:18:12,0.000,0.0,0.0,0.0
10/10/2023,04:19:13,0.000,0.0,0.0,0.0
10/10/2023,04:20:13,0.000,0.0,0.0,0.0
10/10/2023,04:21:13,0.000,0.0,0.0,0.0
10/10/2023,04:22:13,0.000,0.0,0.0,0.0
10/10/2023,04:23:13,0.000,0.0,0.0,0.0
10/10/2023,04:24:13,0.000,0.0,0.0,0.0
10/10/2023,04:25:14,0.000,0.0,0.0,0.0
10/10/2023,04:26:13,0.000,0.0,0.0,0.0
10/10/2023,04:27:13,0.001,0.0,0.0,0.0
10/10/2023,04:28:13,0.000,0.0,0.0,0.0
10/10/2023,04:29:13,0.000,0.0,0.0,0.0
10/10/2023,04:30:13,0.000,0.0,0.0,0.0
10/10/2023,04:31:14,0.000,0.0,0.0,0.0
10/10/2023,04:32:13,0.001,0.0,0.0,0.0
10/10/2023,04:33:13,0.000,0.0,0.0,0.0
10/10/2023,04:34:14,0.000,0.0,0.0,0.0
10/10/2023,04:35:14,0.000,0.0,0.0,0.0
10/10/2023,04:36:14,0.000,0.0,0.0,0.0
10/10/2023,04:37:14,0.000,0.0,0.0,0.0
10/10/2023,04:38:14,0.001,0.0,0.0,0.0
10/10/2023,04:39:13,0.001,0.0,0.0,0.0
10/10/2023,04:40:13,0.001,0.0,0.0,0.0
10/10/2023,04:41:14,0.001,0.0,0.0,0.0
10/10/2023,04:42:13,0.001,0.0,0.0,0.0
10/10/2023,04:43:14,0.002,0.0,0.0,0.0
10/10/2023,04:44:13,0.001,0.0,0.0,0.0
10/10/2023,04:45:14,0.001,0.0,0.0,0.0
10/10/2023,04:46:14,0.000,0.0,0.0,0.0
10/10/2023,04:47:13,0.001,0.0,0.0,0.0
10/10/2023,04:48:14,0.001,0.0,0.0,0.0
10/10/2023,04:49:13,0.000,0.0,0.0,0.0
10/10/2023,04:50:14,0.000,0.0,0.0,0.0
10/10/2023,04:51:14,0.000,0.0,0.0,0.0
10/10/2023,04:52:14,0.001,0.0,0.0,0.0
10/10/2023,04:53:14,0.001,0.0,0.0,0.0
10/10/2023,04:54:14,0.000,0.0,0.0,0.0
10/10/2023,04:55:14,0.001,0.0,0.0,0.0
10/10/2023,04:56:14,0.001,0.0,0.0,0.0
10/10/2023,04:57:14,0.001,0.0,0.0,0.0
10/10/2023,04:58:15,0.001,0.0,0.0,0.0
10/10/2023,04:59:14,0.001,0.0,0.0,0.0
10/10/2023,05:00:15,0.001,0.0,0.0,0.0
10/10/2023,05:01:14,0.001,0.0,0.0,0.0
10/10/2023,05:02:14,0.001,0.0,0.0,0.0
10/10/2023,05:03:14,0.001,0.0,0.0,0.0
10/10/2023,05:04:14,0.001,0.0,0.0,0.0
10/10/2023,05:05:15,0.001,0.0,0.0,0.0
10/10/2023,05:06:14,0.001,0.0,0.0,0.0
10/10/2023,05:07:14,0.001,0.0,0.0,0.0
10/10/2023,05:08:15,0.001,0.0,0.0,0.0
10/10/2023,05:09:14,0.001,0.0,0.0,0.0
10/10/2023,05:10:15,0.001,0.0,0.0,0.0
10/10/2023,05:11:15,0.000,0.0,0.0,0.0
10/10/2023,05:12:15,0.001,0.0,0.0,0.0
10/10/2023,05:13:15,0.001,0.0,0.0,0.0
10/10/2023,05:14:14,0.001,0.0,0.0,0.0
10/10/2023,05:15:15,0.001,0.0,0.0,0.0
10/10/2023,05:16:15,0.002,0.0,0.0,0.0
10/10/2023,05:17:14,0.001,0.0,0.0,0.0
10/10/2023,05:18:15,0.001,0.0,0.0,0.0
10/10/2023,05:19:15,0.000,0.0,0.0,0.0
10/10/2023,05:20:15,0.000,0.0,0.0,0.0
10/10/2023,05:21:15,0.001,0.0,0.0,0.0
10/10/2023,05:22:15,0.001,0.0,0.0,0.0
10/10/2023,05:23:15,0.001,0.0,0.0,0.0
10/10/2023,05:24:15,0.001,0.0,0.0,0.0
10/10/2023,05:25:15,0.001,0.0,0.0,0.0
10/10/2023,05:26:15,0.001,0.0,0.0,0.0
10/10/2023,05:27:15,0.001,0.0,0.0,0.0
10/10/2023,05:28:15,0.000,0.0,0.0,0.0
10/10/2023,05:29:16,0.002,0.0,0.0,0.0
10/10/2023,05:30:15,0.000,0.0,0.0,0.0
10/10/2023,05:31:15,0.001,0.0,0.0,0.0
10/10/2023,05:32:16,0.001,0.0,0.0,0.0
10/10/2023,05:33:15,0.001,0.0,0.0,0.0
10/10/2023,05:34:16,0.001,0.0,0.0,0.0
10/10/2023,05:35:15,0.001,0.0,0.0,0.0
10/10/2023,05:36:16,0.001,0.0,0.0,0.0
10/10/2023,05:37:16,0.001,0.0,0.0,0.0
10/10/2023,05:38:15,0.002,0.0,0.0,0.0
10/10/2023,05:39:16,0.001,0.0,0.0,0.0
10/10/2023,05:40:16,0.001,0.0,0.0,0.0
10/10/2023,05:41:15,0.001,0.0,0.0,0.0
10/10/2023,05:42:15,0.001,0.0,0.0,0.0
10/10/2023,05:43:16,0.001,0.0,0.0,0.0
10/10/2023,05:44:16,0.001,0.0,0.0,0.0
10/10/2023,05:45:16,0.000,0.0,0.0,0.0
10/10/2023,05:46:15,0.001,0.0,0.0,0.0
10/10/2023,05:47:16,0.000,0.0,0.0,0.0
10/10/2023,05:48:16,0.001,0.0,0.0,0.0
10/10/2023,05:49:15,0.002,0.0,0.0,0.0
10/10/2023,05:50:16,0.001,0.0,0.0,0.0
10/10/2023,05:51:16,0.001,0.0,0.0,0.0
10/10/2023,05:52:16,0.001,0.0,0.0,0.0
10/10/2023,05:53:16,0.000,0.0,0.0,0.0
10/10/2023,05:54:16,0.001,0.0,0.0,0.0
10/10/2023,05:55:16,0.001,0.0,0.0,0.0
10/10/2023,05:56:17,0.000,0.0,0.0,0.0
10/10/2023,05:57:16,0.001,0.0,0.0,0.0
10/10/2023,05:58:17,0.001,0.0,0.0,0.0
10/10/2023,05:59:16,0.001,0.0,0.0,0.0
10/10/2023,06:00:16,0.001,0.0,0.0,0.0
10/10/2023,06:01:16,0.001,0.0,0.0,0.0
10/10/2023,06:02:17,0.000,0.0,0.0,0.0
10/10/2023,06:03:17,0.000,0.0,0.0,0.0
10/10/2023,06:04:16,0.001,0.0,0.0,0.0
10/10/2023,06:05:17,0.000,0.0,0.0,0.0
10/10/2023,06:06:17,0.003,0.0,0.0,0.0
10/10/2023,06:07:16,0.003,0.0,0.0,0.0
10/10/2023,06:08:16,0.002,0.0,0.0,0.0
10/10/2023,06:09:17,0.002,0.0,0.0,0.0
10/10/2023,06:10:17,0.002,0.0,0.0,0.0
10/10/2023,06:11:17,0.001,0.0,0.0,0.0
10/10/2023,06:12:16,0.002,0.0,0.0,0.0
10/10/2023,06:13:17,0.002,0.0,0.0,0.0
10/10/2023,06:14:17,0.003,0.0,0.0,0.0
10/10/2023,06:15:17,0.002,0.0,0.0,0.0
10/10/2023,06:16:16,0.003,0.0,0.0,0.0
10/10/2023,06:17:17,0.003,0.0,0.0,0.0
10/10/2023,06:18:17,0.003,0.0,0.0,0.0
10/10/2023,06:19:17,0.003,0.0,0.0,0.0
10/10/2023,06:20:17,0.003,0.0,0.0,0.0
10/10/2023,06:21:17,0.003,0.0,0.0,0.0
10/10/2023,06:22:17,0.003,0.0,0.0,0.0
10/10/2023,06:23:17,0.003,0.0,0.0,0.0
10/10/2023,06:24:17,0.004,0.0,0.0,0.0
10/10/2023,06:25:17,0.004,0.0,0.0,0.0
10/10/2023,06:26:17,0.004,0.0,0.0,0.0
10/10/2023,06:27:17,0.006,0.0,0.0,0.0
10/10/2023,06:28:18,0.005,0.0,0.0,0.0
10/10/2023,06:29:17,0.005,0.0,0.0,0.0
10/10/2023,06:30:17,0.006,0.0,0.0,0.0
10/10/2023,06:31:17,0.006,0.0,0.0,0.0
10/10/2023,06:32:17,0.006,0.0,0.0,0.0
10/10/2023,06:33:17,0.007,0.0,0.0,0.0
10/10/2023,06:34:18,0.007,0.0,0.0,0.0
10/10/2023,06:35:17,0.007,0.0,0.0,0.0
10/10/2023,06:36:17,0.009,0.0,0.001,0.001
10/10/2023,06:37:18,0.008,0.0,0.001,0.0
10/10/2023,06:38:18,0.009,0.0,0.001,0.0
10/10/2023,06:39:17,0.009,0.0,0.001,0.0
10/10/2023,06:40:18,0.009,0.0,0.001,0.0
10/10/2023,06:41:18,0.011,0.0,0.001,0.0
10/10/2023,06:42:17,0.011,0.0,0.001,0.0
10/10/2023,06:43:18,0.011,0.0,0.002,0.001
10/10/2023,06:44:18,0.011,0.0,0.002,0.0
10/10/2023,06:45:17,0.012,0.0,0.002,0.0
10/10/2023,06:46:18,0.013,0.0,0.002,0.0
10/10/2023,06:47:17,0.013,0.0,0.002,0.0
10/10/2023,06:48:17,0.014,0.0,0.003,0.001
10/10/2023,06:49:18,0.013,0.0,0.003,0.0
10/10/2023,06:50:18,0.015,0.0,0.003,0.0
10/10/2023,06:51:18,0.016,0.0,0.003,0.0
10/10/2023,06:52:18,0.016,0.0,0.004,0.001
10/10/2023,06:53:18,0.017,0.0,0.004,0.0
10/10/2023,06:54:18,0.017,0.0,0.004,0.0
10/10/2023,06:55:18,0.018,0.0,0.005,0.001
10/10/2023,06:56:18,0.019,0.0,0.005,0.0
10/10/2023,06:57:18,0.020,0.0,0.005,0.0
10/10/2023,06:58:18,0.021,0.0,0.006,0.001
10/10/2023,06:59:18,0.023,0.0,0.006,0.0
10/10/2023,07:00:18,0.022,0.0,0.006,0.0
10/10/2023,07:01:18,0.024,0.0,0.007,0.001
10/10/2023,07:02:19,0.024,0.0,0.007,0.0
10/10/2023,07:03:18,0.025,0.0,0.007,0.0
10/10/2023,07:04:18,0.026,0.0,0.008,0.001
10/10/2023,07:05:18,0.027,0.0,0.008,0.0
10/10/2023,07:06:19,0.028,0.0,0.009,0.001
10/10/2023,07:07:19,0.029,0.0,0.009,0.0
10/10/2023,07:08:19,0.030,0.0,0.01,0.001
10/10/2023,07:09:19,0.030,0.0,0.01,0.0
10/10/2023,07:10:19,0.031,0.0,0.011,0.001
10/10/2023,07:11:19,0.033,0.0,0.011,0.0
10/10/2023,07:12:18,0.034,0.0,0.012,0.001
10/10/2023,07:13:19,0.035,0.0,0.012,0.0
10/10/2023,07:14:18,0.036,0.0,0.013,0.001
10/10/2023,07:15:18,0.037,0.0,0.014,0.001
10/10/2023,07:16:19,0.039,0.0,0.014,0.0
10/10/2023,07:17:19,0.039,0.0,0.015,0.001
10/10/2023,07:18:18,0.040,0.0,0.016,0.001
10/10/2023,07:19:19,0.043,0.0,0.016,0.0
10/10/2023,07:20:18,0.045,0.0,0.017,0.001
10/10/2023,07:21:19,0.045,0.0,0.018,0.001
10/10/2023,07:22:18,0.047,0.0,0.019,0.001
10/10/2023,07:23:20,0.047,0.0,0.019,0.0
10/10/2023,07:24:19,0.050,0.0,0.02,0.001
10/10/2023,07:25:19,0.052,0.0,0.021,0.001
10/10/2023,07:26:19,0.053,0.0,0.022,0.001
10/10/2023,07:27:19,0.055,0.0,0.023,0.001
10/10/2023,07:28:19,0.055,0.0,0.024,0.001
10/10/2023,07:29:19,0.058,0.0,0.025,0.001
10/10/2023,07:30:19,0.061,0.0,0.026,0.001
10/10/2023,07:31:19,0.061,0.0,0.027,0.001
10/10/2023,07:32:19,0.063,0.0,0.028,0.001
10/10/2023,07:33:20,0.066,0.0,0.029,0.001
10/10/2023,07:34:19,0.067,0.0,0.03,0.001
10/10/2023,07:35:19,0.068,0.0,0.031,0.001
10/10/2023,07:36:20,0.070,0.0,0.032,0.001
10/10/2023,07:37:19,0.072,0.0,0.033,0.001
10/10/2023,07:38:19,0.073,0.0,0.035,0.002
10/10/2023,07:39:19,0.075,0.0,0.036,0.001
10/10/2023,07:40:20,0.076,0.0,0.037,0.001
10/10/2023,07:41:20,0.079,0.0,0.038,0.001
10/10/2023,07:42:20,0.081,0.0,0.04,0.002
10/10/2023,07:43:19,0.082,0.0,0.041,0.001
10/10/2023,07:44:20,0.084,0.0,0.042,0.001
10/10/2023,07:45:19,0.086,0.0,0.044,0.002
10/10/2023,07:46:20,0.088,0.0,0.045,0.001
10/10/2023,07:47:20,0.090,0.0,0.047,0.002
10/10/2023,07:48:20,0.092,0.0,0.048,0.001
10/10/2023,07:49:20,0.094,0.0,0.05,0.002
10/10/2023,07:50:20,0.095,0.0,0.051,0.001
10/10/2023,07:51:20,0.098,0.0,0.053,0.002
10/10/2023,07:52:20,0.099,0.0,0.055,0.002
10/10/2023,07:53:20,0.103,0.0,0.056,0.001
10/10/2023,07:54:20,0.106,0.0,0.058,0.002
10/10/2023,07:55:20,0.108,0.0,0.06,0.002
10/10/2023,07:56:20,0.108,0.0,0.062,0.002
10/10/2023,07:57:20,0.110,0.0,0.063,0.001
10/10/2023,07:58:20,0.113,0.0,0.065,0.002
10/10/2023,07:59:20,0.116,0.0,0.067,0.002
10/10/2023,08:00:20,0.118,0.0,0.069,0.002
10/10/2023,08:01:21,0.122,0.0,0.071,0.002
10/10/2023,08:02:21,0.123,0.0,0.073,0.002
10/10/2023,08:03:20,0.126,0.0,0.075,0.002
10/10/2023,08:04:20,0.129,0.0,0.077,0.002
10/10/2023,08:05:20,0.131,0.0,0.08,0.003
10/10/2023,08:06:21,0.133,0.0,0.082,0.002
10/10/2023,08:07:20,0.136,0.0,0.084,0.002
10/10/2023,08:08:20,0.137,0.0,0.086,0.002
10/10/2023,08:09:20,0.144,0.0,0.089,0.003
10/10/2023,08:10:21,0.148,0.0,0.091,0.002
10/10/2023,08:11:21,0.147,0.0,0.094,0.003
10/10/2023,08:12:21,0.150,0.0,0.096,0.002
10/10/2023,08:13:22,0.153,0.0,0.099,0.003
10/10/2023,08:14:22,0.159,0.0,0.101,0.002
10/10/2023,08:15:21,0.163,0.0,0.104,0.003
10/10/2023,08:16:21,0.167,0.0,0.107,0.003
10/10/2023,08:17:20,0.168,0.0,0.109,0.002
10/10/2023,08:18:21,0.173,0.0,0.112,0.003
10/10/2023,08:19:21,0.176,0.0,0.115,0.003
10/10/2023,08:20:20,0.178,0.0,0.118,0.003
10/10/2023,08:21:21,0.182,0.0,0.121,0.003
10/10/2023,08:22:21,0.185,0.0,0.124,0.003
10/10/2023,08:23:21,0.188,0.0,0.127,0.003
10/10/2023,08:24:21,0.191,0.0,0.13,0.003
10/10/2023,08:25:21,0.194,0.0,0.134,0.004
10/10/2023,08:26:21,0.197,0.0,0.137,0.003
10/10/2023,08:27:21,0.200,0.0,0.14,0.003
10/10/2023,08:28:21,0.201,0.0,0.144,0.004
10/10/2023,08:29:21,0.207,0.0,0.147,0.003
10/10/2023,08:30:21,0.209,0.0,0.15,0.003
10/10/2023,08:31:21,0.210,0.0,0.154,0.004
10/10/2023,08:32:21,0.216,0.0,0.158,0.004
10/10/2023,08:33:22,0.220,1.0,0.161,0.003
10/10/2023,08:34:21,0.221,1.0,0.165,0.004
10/10/2023,08:35:21,0.227,1.0,0.168,0.003
10/10/2023,08:36:21,0.230,1.0,0.172,0.004
10/10/2023,08:37:22,0.234,1.0,0.176,0.004
10/10/2023,08:38:22,0.237,1.0,0.18,0.004
10/10/2023,08:39:21,0.240,1.0,0.184,0.004
10/10/2023,08:40:22,0.245,1.0,0.188,0.004
10/10/2023,08:41:21,0.248,1.0,0.192,0.004
10/10/2023,08:42:22,0.252,1.0,0.197,0.005
10/10/2023,08:43:21,0.256,1.0,0.201,0.004
10/10/2023,08:44:21,0.260,1.0,0.205,0.004
10/10/2023,08:45:22,0.264,1.0,0.209,0.004
10/10/2023,08:46:21,0.268,1.0,0.214,0.005
10/10/2023,08:47:22,0.271,1.0,0.218,0.004
10/10/2023,08:48:22,0.275,1.0,0.223,0.005
10/10/2023,08:49:22,0.279,1.0,0.228,0.005
10/10/2023,08:50:22,0.284,1.0,0.232,0.004
10/10/2023,08:51:22,0.287,1.0,0.237,0.005
10/10/2023,08:52:22,0.292,1.0,0.242,0.005
10/10/2023,08:53:22,0.296,1.0,0.247,0.005
10/10/2023,08:54:22,0.300,1.0,0.252,0.005
10/10/2023,08:55:23,0.304,1.0,0.257,0.005
10/10/2023,08:56:22,0.307,1.0,0.262,0.005
10/10/2023,08:57:22,0.311,1.0,0.267,0.005
10/10/2023,08:58:22,0.317,1.0,0.272,0.005
10/10/2023,08:59:22,0.321,1.0,0.278,0.006
10/10/2023,09:00:22,0.326,1.0,0.283,0.005
10/10/2023,09:01:21,0.330,1.0,0.288,0.005
10/10/2023,09:02:45,0.336,1.0,0.296,0.008
10/10/2023,09:03:22,0.339,1.0,0.3,0.004
10/10/2023,09:04:22,0.342,1.0,0.305,0.005
10/10/2023,09:05:22,0.343,1.0,0.311,0.006
10/10/2023,09:06:23,0.338,1.0,0.317,0.006
10/10/2023,09:07:22,0.354,1.0,0.322,0.005
10/10/2023,09:08:22,0.360,1.0,0.328,0.006
10/10/2023,09:09:23,0.364,1.0,0.334,0.006
10/10/2023,09:10:23,0.369,1.0,0.34,0.006
10/10/2023,09:11:22,0.374,1.0,0.347,0.007
10/10/2023,09:12:23,0.378,1.0,0.353,0.006
10/10/2023,09:13:23,0.382,1.0,0.359,0.006
10/10/2023,09:14:23,0.386,1.0,0.366,0.007
10/10/2023,09:15:23,0.392,1.0,0.372,0.006
10/10/2023,09:16:23,0.394,1.0,0.379,0.007
10/10/2023,09:17:24,0.395,1.0,0.385,0.006
10/10/2023,09:18:23,0.378,1.0,0.392,0.007
10/10/2023,09:19:23,0.408,1.0,0.398,0.006
10/10/2023,09:20:23,0.412,1.0,0.405,0.007
10/10/2023,09:21:23,0.416,1.0,0.412,0.007
10/10/2023,09:22:23,0.422,1.0,0.419,0.007
10/10/2023,09:23:23,0.426,1.0,0.426,0.007
10/10/2023,09:24:23,0.431,1.0,0.433,0.007
10/10/2023,09:25:23,0.436,1.0,0.44,0.007
10/10/2023,09:26:23,0.440,1.0,0.448,0.008
10/10/2023,09:27:23,0.445,1.0,0.455,0.007
10/10/2023,09:28:23,0.449,1.0,0.463,0.008
10/10/2023,09:29:23,0.452,1.0,0.47,0.007
10/10/2023,09:30:23,0.457,1.0,0.478,0.008
10/10/2023,09:31:23,0.461,1.0,0.485,0.007
10/10/2023,09:32:24,0.465,1.0,0.493,0.008
10/10/2023,09:33:23,0.470,1.0,0.501,0.008
10/10/2023,09:34:24,0.474,1.0,0.509,0.008
10/10/2023,09:35:23,0.479,1.0,0.517,0.008
10/10/2023,09:36:23,0.481,1.0,0.525,0.008
10/10/2023,09:37:24,0.487,1.0,0.533,0.008
10/10/2023,09:38:23,0.490,1.0,0.541,0.008
10/10/2023,09:39:24,0.496,1.0,0.549,0.008
10/10/2023,09:40:23,0.499,1.0,0.557,0.008
10/10/2023,09:41:24,0.504,1.0,0.566,0.009
10/10/2023,09:42:24,0.506,1.0,0.574,0.008
10/10/2023,09:43:24,0.511,1.0,0.583,0.009
10/10/2023,09:44:24,0.517,1.0,0.591,0.008
10/10/2023,09:45:23,0.520,1.0,0.6,0.009
10/10/2023,09:46:24,0.524,1.0,0.609,0.009
10/10/2023,09:47:24,0.528,1.0,0.617,0.008
10/10/2023,09:48:24,0.531,1.0,0.626,0.009
10/10/2023,09:49:24,0.539,1.0,0.635,0.009
10/10/2023,09:50:24,0.541,1.0,0.644,0.009
10/10/2023,09:51:23,0.548,1.0,0.653,0.009
10/10/2023,09:52:24,0.554,1.0,0.662,0.009
10/10/2023,09:53:24,0.559,1.0,0.672,0.01
10/10/2023,09:54:24,0.566,1.0,0.681,0.009
10/10/2023,09:55:24,0.571,1.0,0.69,0.009
10/10/2023,09:56:24,0.578,1.0,0.7,0.01
10/10/2023,09:57:24,0.582,1.0,0.71,0.01
10/10/2023,09:58:24,0.587,1.0,0.719,0.009
10/10/2023,09:59:47,0.604,1.0,0.733,0.014
10/10/2023,10:00:24,0.607,1.0,0.739,0.006
10/10/2023,10:01:25,0.613,1.0,0.75,0.011
10/10/2023,10:02:24,0.616,1.0,0.76,0.01
10/10/2023,10:03:25,0.617,1.0,0.77,0.01
10/10/2023,10:04:24,0.631,1.0,0.78,0.01
10/10/2023,10:05:24,0.639,1.0,0.791,0.011
10/10/2023,10:06:24,0.645,1.0,0.802,0.011
10/10/2023,10:07:25,0.658,2.0,0.813,0.011
10/10/2023,10:08:24,0.660,2.0,0.824,0.011